TimeMDT,TemperatureF,Dew PointF,Humidity,Sea Level PressureIn,VisibilityMPH,Wind Direction,Wind SpeedMPH,Gust SpeedMPH,PrecipitationIn,Events,Conditions,WindDirDegrees,DateUTC
12:15 AM,81.7,52.5,36,29.98,10.0,NW,5.8,-,N/A,,Clear,320,2013-07-06 06:15:00
12:35 AM,81.5,50.7,34,29.97,10.0,NNW,5.8,-,N/A,,Clear,330,2013-07-06 06:35:00
12:55 AM,82.4,48.2,30,29.98,10.0,WNW,11.5,27.6,N/A,,Clear,290,2013-07-06 06:55:00
1:15 AM,80.1,54.0,40,29.99,10.0,WSW,18.4,-,N/A,,Clear,250,2013-07-06 07:15:00
1:35 AM,77.9,55.6,46,29.98,10.0,West,16.1,23.0,N/A,,Clear,270,2013-07-06 07:35:00
1:55 AM,77.4,55.4,47,29.98,10.0,West,13.8,-,N/A,,Clear,280,2013-07-06 07:55:00
2:15 AM,78.8,54.7,43,29.98,10.0,WNW,15.0,24.2,N/A,,Clear,290,2013-07-06 08:15:00
2:35 AM,78.1,55.0,45,29.98,10.0,WNW,12.7,-,N/A,,Clear,290,2013-07-06 08:35:00
2:55 AM,77.2,55.4,47,29.98,10.0,WNW,10.4,-,N/A,,Clear,300,2013-07-06 08:55:00
3:15 AM,76.5,55.8,49,29.98,10.0,WNW,12.7,-,N/A,,Clear,290,2013-07-06 09:15:00
3:35 AM,76.1,56.3,50,29.98,10.0,WNW,12.7,-,N/A,,Clear,290,2013-07-06 09:35:00
3:55 AM,75.6,56.3,51,29.98,10.0,West,9.2,-,N/A,,Clear,280,2013-07-06 09:55:00
4:15 AM,74.7,56.3,53,29.98,10.0,West,9.2,-,N/A,,Clear,270,2013-07-06 10:15:00
4:35 AM,73.6,56.3,55,29.98,10.0,West,6.9,-,N/A,,Clear,280,2013-07-06 10:35:00
4:55 AM,72.0,55.6,56,29.98,10.0,NW,5.8,-,N/A,,Clear,320,2013-07-06 10:55:00
5:15 AM,71.2,54.9,56,29.98,10.0,North,5.8,-,N/A,,Clear,350,2013-07-06 11:15:00
5:35 AM,75.6,52.0,44,29.98,10.0,North,6.9,-,N/A,,Clear,360,2013-07-06 11:35:00
5:55 AM,75.6,50.0,41,29.98,10.0,North,9.2,-,N/A,,Clear,360,2013-07-06 11:55:00
6:15 AM,76.3,50.0,40,29.98,10.0,NNE,12.7,20.7,N/A,,Clear,20,2013-07-06 12:15:00
6:35 AM,75.9,51.6,43,29.98,10.0,North,13.8,-,N/A,,Clear,350,2013-07-06 12:35:00
6:55 AM,76.8,52.3,42,29.99,10.0,North,12.7,-,N/A,,Clear,350,2013-07-06 12:55:00
7:15 AM,77.9,52.7,41,29.99,10.0,North,12.7,-,N/A,,Clear,350,2013-07-06 13:15:00
7:35 AM,79.0,52.5,40,29.99,10.0,North,11.5,-,N/A,,Clear,350,2013-07-06 13:35:00
7:55 AM,81.3,50.9,35,30.00,10.0,North,10.4,-,N/A,,Clear,360,2013-07-06 13:55:00
8:35 AM,84.0,50.4,31,30.00,10.0,North,5.8,-,N/A,,Clear,360,2013-07-06 14:35:00
8:55 AM,84.9,50.0,30,30.00,10.0,North,4.6,-,N/A,,Clear,360,2013-07-06 14:55:00
9:15 AM,85.6,50.0,29,30.00,10.0,NNE,6.9,-,N/A,,Clear,30,2013-07-06 15:15:00
9:55 AM,87.6,49.3,27,30.01,10.0,East,4.6,-,N/A,,Clear,80,2013-07-06 15:55:00
10:15 AM,87.6,48.9,26,30.00,10.0,SW,3.5,-,N/A,,Clear,230,2013-07-06 16:15:00
10:35 AM,88.7,48.2,25,30.01,10.0,South,4.6,-,N/A,,Clear,180,2013-07-06 16:35:00
11:15 AM,91.0,48.4,23,30.00,10.0,Calm,Calm,-,N/A,,Clear,0,2013-07-06 17:15:00
11:55 AM,92.5,48.7,22,29.99,10.0,SSE,5.8,-,N/A,,Clear,160,2013-07-06 17:55:00
12:15 PM,92.7,48.7,22,29.99,10.0,Calm,Calm,-,N/A,,Clear,0,2013-07-06 18:15:00
12:35 PM,93.0,48.6,22,29.99,10.0,SW,5.8,-,N/A,,Clear,220,2013-07-06 18:35:00
12:55 PM,94.3,48.0,21,29.97,10.0,SSE,8.1,-,N/A,,Clear,150,2013-07-06 18:55:00
1:35 PM,95.0,46.8,19,29.95,10.0,SW,10.4,-,N/A,,Clear,220,2013-07-06 19:35:00
1:55 PM,95.9,46.6,18,29.95,10.0,WSW,10.4,16.1,N/A,,Clear,250,2013-07-06 19:55:00
2:15 PM,98.4,45.9,17,29.94,10.0,WNW,11.5,18.4,N/A,,Clear,300,2013-07-06 20:15:00
2:35 PM,96.8,45.7,17,29.93,10.0,SSW,3.5,9.2,N/A,,Clear,210,2013-07-06 20:35:00
2:55 PM,97.3,45.7,17,29.92,10.0,West,4.6,-,N/A,,Clear,260,2013-07-06 20:55:00
3:15 PM,97.3,45.7,17,29.91,10.0,SW,6.9,-,N/A,,Scattered Clouds,220,2013-07-06 21:15:00
3:35 PM,96.8,44.1,16,29.90,10.0,WNW,4.6,17.3,N/A,,Scattered Clouds,300,2013-07-06 21:35:00
3:55 PM,99.3,43.7,15,29.90,10.0,SW,8.1,-,N/A,,Clear,220,2013-07-06 21:55:00
4:15 PM,97.3,43.7,16,29.90,10.0,WNW,11.5,-,N/A,,Scattered Clouds,290,2013-07-06 22:15:00
4:35 PM,96.3,44.6,17,29.90,10.0,NW,9.2,21.9,N/A,Thunderstorm,Mostly Cloudy,320,2013-07-06 22:35:00
4:55 PM,95.5,45.7,18,29.89,10.0,NNW,18.4,26.5,N/A,,Scattered Clouds,330,2013-07-06 22:55:00
5:15 PM,94.8,45.1,18,29.88,10.0,North,15.0,21.9,N/A,Thunderstorm,Mostly Cloudy,360,2013-07-06 23:15:00
5:35 PM,91.6,56.5,30,29.88,10.0,East,15.0,23.0,N/A,Rain,Light Rain,100,2013-07-06 23:35:00
5:55 PM,93.7,47.5,20,29.88,10.0,East,8.1,-,N/A,,Scattered Clouds,80,2013-07-06 23:55:00
6:15 PM,96.3,44.1,17,29.88,10.0,NE,4.6,-,N/A,,Clear,50,2013-07-07 00:15:00
6:35 PM,95.7,46.2,18,29.88,10.0,ESE,6.9,-,N/A,,Clear,120,2013-07-07 00:35:00
6:55 PM,94.5,48.0,20,29.88,10.0,SSE,4.6,-,N/A,,Clear,150,2013-07-07 00:55:00
7:15 PM,93.7,48.6,21,29.88,10.0,East,4.6,-,N/A,,Clear,90,2013-07-07 01:15:00
7:35 PM,91.6,50.2,24,29.89,10.0,East,4.6,-,N/A,,Clear,90,2013-07-07 01:35:00
7:55 PM,91.2,47.7,22,29.90,10.0,Calm,Calm,-,N/A,,Clear,0,2013-07-07 01:55:00
8:15 PM,90.5,45.5,21,29.90,10.0,Calm,Calm,-,N/A,,Clear,0,2013-07-07 02:15:00
8:35 PM,90.5,45.1,21,29.91,10.0,Calm,Calm,-,N/A,,Clear,0,2013-07-07 02:35:00
8:55 PM,89.6,45.5,22,29.92,10.0,Calm,Calm,-,N/A,,Clear,0,2013-07-07 02:55:00
9:15 PM,90.3,45.0,21,29.92,10.0,Calm,Calm,-,N/A,,Clear,0,2013-07-07 03:15:00
9:35 PM,88.5,45.3,22,29.92,10.0,Calm,Calm,-,N/A,,Clear,0,2013-07-07 03:35:00
9:55 PM,88.3,45.5,23,29.94,10.0,SW,6.9,-,N/A,,Clear,230,2013-07-07 03:55:00
10:15 PM,87.8,45.3,23,29.94,10.0,West,5.8,-,N/A,,Scattered Clouds,280,2013-07-07 04:15:00
10:35 PM,85.6,46.0,25,29.95,10.0,NW,8.1,-,N/A,,Scattered Clouds,310,2013-07-07 04:35:00
10:55 PM,85.1,49.1,29,29.95,10.0,NW,9.2,-,N/A,,Clear,310,2013-07-07 04:55:00
11:15 PM,83.7,49.6,31,29.95,10.0,NNW,9.2,-,N/A,,Scattered Clouds,330,2013-07-07 05:15:00
11:35 PM,84.2,49.5,30,29.95,10.0,NNW,10.4,-,N/A,,Scattered Clouds,340,2013-07-07 05:35:00
11:55 PM,83.1,50.2,32,29.95,10.0,NNW,10.4,-,N/A,,Clear,340,2013-07-07 05:55:00